FW5743 Weather Reports


time (UTC)temp
C
wind
direction
speed
KPH
gust
KPH
rain 1hr
cm
rain 24hr
cm
rain mn
cm
humidity
%
barometer
mb
20260510071537 8 305 8.0 19.3 0.00 0.53 0.00 65 1010.1
20260510071015 8 293 9.7 24.1 0.00 0.53 0.00 64 1010.0
20260510070515 8 275 9.7 24.1 0.00 0.53 0.00 65 1010.0
20260510070015 8 281 4.8 16.1 0.00 0.53 0.00 66 1010.1
20260510065515 9 275 6.4 16.1 0.00 0.53 0.00 65 1009.9
20260510065035 9 267 4.8 16.1 0.00 0.53 0.00 66 1009.9
20260510064515 9 269 3.2 14.5 0.00 0.53 0.00 65 1009.7
20260510064015 9 283 4.8 17.7 0.00 0.53 0.00 64 1009.6
20260510063515 9 290 6.4 19.3 0.00 0.53 0.00 64 1009.7
20260510063015 9 289 8.0 19.3 0.00 0.53 0.00 65 1009.6
20260510062515 9 280 6.4 16.1 0.00 0.53 0.00 65 1009.7
20260510062015 9 287 4.8 12.9 0.00 0.53 0.00 66 1009.6
20260510061535 9 298 4.8 12.9 0.00 0.53 0.00 67 1009.5
20260510061016 9 293 6.4 14.5 0.00 0.53 0.00 67 1009.5
20260510060515 9 301 4.8 14.5 0.00 0.53 0.00 68 1009.4
20260510060015 9 287 4.8 12.9 0.00 0.53 0.00 68 1009.4
20260510055515 9 281 4.8 11.3 0.00 0.53 0.00 68 1009.3
20260510055015 9 250 1.6 11.3 0.00 0.53 0.00 68 1009.3
20260510054515 9 269 3.2 11.3 0.00 0.53 0.00 68 1009.2
20260510054015 9 276 3.2 9.7 0.00 0.53 0.00 68 1009.1
20260510053515 9 276 3.2 9.7 0.00 0.53 0.00 67 1009.0
20260510053015 10 264 1.6 6.4 0.00 0.53 0.00 67 1009.0
20260510052515 10 287 3.2 11.3 0.00 0.53 0.00 67 1008.9
20260510052015 10 296 4.8 12.9 0.00 0.53 0.00 68 1008.9
20260510051515 10 298 4.8 12.9 0.00 0.53 0.00 69 1008.9
20260510051015 10 298 3.2 11.3 0.00 0.53 0.00 69 1008.9
20260510050515 10 292 3.2 16.1 0.00 0.53 0.00 70 1008.8
20260510050014 10 293 6.4 16.1 0.00 0.53 0.00 71 1008.6
20260510045515 10 290 1.6 9.7 0.00 0.53 0.00 72 1008.7
20260510045014 10 270 3.2 9.7 0.00 0.53 0.00 72 1008.6
20260510044515 10 281 1.6 12.9 0.00 0.53 0.00 72 1008.5
20260510044015 10 299 3.2 12.9 0.00 0.53 0.00 72 1008.4
20260510043515 10 294 4.8 12.9 0.00 0.53 0.00 73 1008.4
20260510043015 10 294 3.2 11.3 0.00 0.53 0.00 73 1008.2
20260510042515 10 295 3.2 11.3 0.00 0.53 0.00 73 1008.0
20260510042015 10 297 3.2 8.0 0.00 0.53 0.00 73 1008.1
20260510041515 10 298 3.2 6.4 0.00 0.53 0.00 74 1008.0
20260510041036 10 312 1.6 12.9 0.00 0.53 0.00 74 1007.9
20260510040516 10 303 3.2 12.9 0.00 0.53 0.00 74 1007.9
20260510040037 10 301 4.8 14.5 0.00 0.53 0.53 75 1007.9
20260510035515 10 303 4.8 14.5 0.00 0.53 0.53 75 1007.8
20260510035014 10 301 6.4 12.9 0.00 0.53 0.53 76 1007.8
20260510034534 10 291 4.8 12.9 0.00 0.53 0.53 77 1007.8
20260510034015 11 290 4.8 12.9 0.00 0.53 0.53 78 1007.6
20260510033514 11 301 4.8 11.3 0.00 0.53 0.53 78 1007.4
20260510033014 11 312 3.2 6.4 0.00 0.53 0.53 78 1007.2
20260510032515 11 309 3.2 6.4 0.00 0.53 0.53 79 1007.4
20260510032015 11 289 3.2 9.7 0.00 0.53 0.53 79 1007.3
20260510031514 11 279 3.2 9.7 0.03 0.53 0.53 79 1007.2
20260510031015 11 283 3.2 11.3 0.03 0.53 0.53 81 1007.1
20260510030516 11 295 3.2 14.5 0.03 0.53 0.53 82 1006.9
20260510030017 11 327 3.2 14.5 0.03 0.53 0.53 84 1006.8
20260510025537 11 322 3.2 11.3 0.03 0.53 0.53 85 1006.8
20260510025016 12 297 4.8 12.9 0.03 0.53 0.53 85 1007.0
20260510024517 12 295 4.8 12.9 0.03 0.53 0.53 87 1007.1
20260510024037 12 289 4.8 14.5 0.03 0.53 0.53 87 1007.1
20260510023516 12 292 6.4 14.5 0.03 0.53 0.53 88 1007.0
20260510023016 12 299 4.8 20.9 0.03 0.53 0.53 87 1007.0
20260510022517 12 304 6.4 20.9 0.03 0.53 0.53 87 1006.9
20260510022016 12 303 6.4 16.1 0.03 0.53 0.53 87 1006.8
20260510021516 12 277 6.4 16.1 0.00 0.51 0.51 87 1006.9
20260510021016 12 276 6.4 12.9 0.00 0.51 0.51 87 1006.6
20260510020515 12 276 3.2 11.3 0.00 0.51 0.51 87 1006.3
20260510020016 12 279 3.2 11.3 0.00 0.51 0.51 87 1006.1
20260510015538 12 262 4.8 17.7 0.00 0.51 0.51 87 1006.0
20260510015016 12 267 4.8 17.7 0.00 0.51 0.51 87 1006.0
20260510014516 12 243 3.2 12.9 0.00 0.51 0.51 87 1005.9
20260510014036 12 254 4.8 11.3 0.00 0.51 0.51 87 1005.9
20260510013536 12 249 3.2 9.7 0.00 0.51 0.51 87 1005.7
20260510013016 12 229 3.2 11.3 0.00 0.51 0.51 87 1005.6
20260510012516 12 232 4.8 11.3 0.00 0.51 0.51 87 1005.5
20260510012016 12 239 3.2 8.0 0.00 0.51 0.51 87 1005.2
20260510011517 12 226 3.2 11.3 0.00 0.51 0.51 87 1005.0
20260510011016 12 237 4.8 11.3 0.00 0.51 0.51 86 1004.9
20260510010516 12 218 3.2 6.4 0.00 0.51 0.51 86 1004.8
20260510010016 12 231 1.6 8.0 0.00 0.51 0.51 86 1004.7
20260510005516 12 254 3.2 8.0 0.00 0.51 0.51 85 1004.5
20260510005016 12 247 1.6 6.4 0.00 0.51 0.51 85 1004.4
20260510004516 12 253 1.6 11.3 0.00 0.51 0.51 85 1004.5
20260510004036 12 247 3.2 11.3 0.00 0.51 0.51 84 1004.5
20260510003516 12 231 3.2 8.0 0.00 0.51 0.51 84 1004.3
20260510003016 12 213 3.2 16.1 0.00 0.51 0.51 84 1004.3
20260510002516 12 227 4.8 17.7 0.00 0.51 0.51 83 1004.2
20260510002016 12 221 6.4 17.7 0.00 0.51 0.51 83 1004.1
20260510001516 12 214 6.4 19.3 0.00 0.51 0.51 83 1004.0
20260510001016 12 215 9.7 22.5 0.00 0.51 0.51 84 1004.0
20260510000516 12 234 9.7 22.5 0.00 0.51 0.51 84 1004.1
20260510000016 12 228 6.4 17.7 0.00 0.51 0.51 85 1004.0
20260509235516 12 226 8.0 20.9 0.00 0.51 0.51 85 1003.9
20260509235036 12 228 8.0 20.9 0.00 0.51 0.51 85 1003.8
20260509234516 12 227 8.0 17.7 0.00 0.51 0.51 86 1003.6
20260509234016 12 216 6.4 17.7 0.00 0.51 0.51 87 1003.4
20260509233516 12 214 4.8 16.1 0.00 0.51 0.51 87 1003.3
20260509233036 12 209 6.4 16.1 0.00 0.51 0.51 87 1003.2
20260509232536 12 208 8.0 14.5 0.00 0.51 0.51 87 1003.1
20260509232016 12 203 8.0 16.1 0.00 0.51 0.51 88 1003.1
20260509231536 12 209 6.4 16.1 0.00 0.51 0.51 88 1003.1
20260509231016 12 246 4.8 16.1 0.00 0.51 0.51 89 1003.0
20260509230536 12 352 6.4 16.1 0.00 0.51 0.51 89 1002.9
20260509230016 12 0 4.8 16.1 0.00 0.51 0.51 90 1002.8
20260509225516 12 0 4.8 14.5 0.03 0.51 0.51 90 1002.8
20260509225017 12 193 6.4 17.7 0.25 0.51 0.51 90 1003.0
20260509224516 12 207 6.4 19.3 0.38 0.51 0.51 90 1003.0
20260509224036 12 194 8.0 19.3 0.43 0.51 0.51 91 1003.1
20260509223516 12 209 6.4 14.5 0.48 0.51 0.51 91 1003.1
20260509223016 12 207 4.8 12.9 0.48 0.51 0.51 91 1002.9
20260509222516 12 188 4.8 11.3 0.51 0.51 0.51 90 1002.8
20260509222016 12 187 3.2 8.0 0.51 0.51 0.51 89 1002.7
20260509221516 12 170 1.6 8.0 0.51 0.51 0.51 88 1002.8
20260509221016 12 167 3.2 11.3 0.51 0.51 0.51 88 1002.8
20260509220536 12 165 4.8 22.5 0.51 0.51 0.51 86 1002.7
20260509220016 13 159 8.0 41.8 0.51 0.51 0.51 83 1002.7
20260509215516 13 207 17.7 41.8 0.48 0.48 0.48 82 1004.1
20260509215016 15 256 14.5 30.6 0.25 0.25 0.25 82 1004.3
20260509214516 15 264 6.4 19.3 0.13 0.13 0.13 83 1003.8
20260509214016 15 235 1.6 4.8 0.08 0.08 0.08 82 1003.2
20260509213516 15 199 1.6 8.0 0.03 0.03 0.03 80 1003.0
20260509213016 16 195 3.2 8.0 0.03 0.03 0.03 78 1003.0
20260509212536 16 180 3.2 8.0 0.00 0.00 0.00 76 1002.9
20260509212016 16 170 3.2 12.9 0.00 0.00 0.00 75 1002.9
20260509211536 16 179 6.4 12.9 0.00 0.00 0.00 75 1002.7
20260509211016 16 185 4.8 12.9 0.00 0.00 0.00 74 1002.8
20260509210516 16 180 4.8 17.7 0.00 0.00 0.00 74 1002.9
20260509210016 16 184 6.4 25.7 0.00 0.00 0.00 74 1002.7
20260509205516 16 197 8.0 25.7 0.00 0.00 0.00 74 1002.5
20260509205016 16 173 8.0 27.4 0.00 0.00 0.00 73 1002.3
20260509204516 16 165 9.7 27.4 0.00 0.00 0.00 73 1002.1
20260509204016 16 141 8.0 22.5 0.00 0.00 0.00 72 1002.1
20260509203515 16 0 8.0 20.9 0.00 0.00 0.00 71 1002.4
20260509203016 16 0 4.8 22.5 0.00 0.00 0.00 71 1002.5
20260509202515 16 1 6.4 22.5 0.00 0.00 0.00 71 1002.5
20260509202036 16 360 6.4 19.3 0.00 0.00 0.00 71 1002.4
20260509201516 16 10 8.0 20.9 0.00 0.00 0.00 71 1002.3
20260509201036 16 14 8.0 20.9 0.00 0.00 0.00 71 1002.4
20260509200516 16 0 8.0 19.3 0.00 0.00 0.00 71 1002.6
20260509200016 16 0 8.0 19.3 0.00 0.00 0.00 71 1002.7
20260509195516 16 0 4.8 17.7 0.00 0.00 0.00 71 1002.8
20260509195015 16 2 6.4 19.3 0.00 0.00 0.00 72 1003.0
20260509194517 16 57 6.4 19.3 0.00 0.00 0.00 74 1003.2
20260509194015 15 0 4.8 14.5 0.00 0.00 0.00 74 1003.3
20260509193515 15 40 4.8 16.1 0.00 0.00 0.00 75 1003.1
20260509193015 15 119 6.4 16.1 0.00 0.00 0.00 75 1003.2
20260509192515 14 145 4.8 14.5 0.00 0.00 0.00 75 1003.3
20260509192016 14 123 3.2 11.3 0.00 0.00 0.00 76 1003.4
20260509191515 13 140 3.2 11.3 0.00 0.00 0.00 76 1003.6
20260509191015 13 137 3.2 11.3 0.00 0.00 0.00 76 1003.6
20260509190515 13 111 4.8 11.3 0.00 0.00 0.00 77 1003.6
20260509190016 13 142 4.8 9.7 0.00 0.00 0.00 78 1003.5
20260509185516 13 71 3.2 9.7 0.00 0.00 0.00 77 1003.6
20260509185015 12 17 1.6 6.4 0.00 0.00 0.00 77 1003.7
20260509184515 12 80 1.6 9.7 0.00 0.00 0.00 77 1003.7
20260509184015 12 104 1.6 9.7 0.00 0.00 0.00 77 1003.9
20260509183515 12 80 1.6 6.4 0.00 0.00 0.00 77 1004.0
20260509183015 12 95 3.2 8.0 0.00 0.00 0.00 77 1003.9
20260509182516 13 128 3.2 11.3 0.00 0.00 0.00 77 1004.1
20260509182015 13 136 3.2 12.9 0.00 0.00 0.00 76 1004.2
20260509181515 13 140 4.8 12.9 0.00 0.00 0.00 76 1004.2
20260509181015 13 101 1.6 6.4 0.00 0.00 0.00 77 1004.3
20260509180515 13 105 1.6 8.0 0.00 0.00 0.00 76 1004.3
20260509180035 13 112 3.2 11.3 0.00 0.00 0.00 75 1004.3
20260509175515 14 125 4.8 12.9 0.00 0.00 0.00 76 1004.4
20260509175015 14 109 4.8 12.9 0.00 0.00 0.00 77 1004.5
20260509174515 14 9 3.2 11.3 0.00 0.00 0.00 77 1004.6
20260509174015 14 24 3.2 11.3 0.00 0.00 0.00 76 1004.7
20260509173515 15 55 3.2 9.7 0.00 0.00 0.00 77 1004.7
20260509173015 15 8 3.2 12.9 0.00 0.00 0.00 77 1004.8
20260509172515 15 25 3.2 12.9 0.00 0.00 0.00 77 1004.9
20260509172056 15 41 3.2 9.7 0.00 0.00 0.00 77 1005.1
20260509171515 14 10 3.2 9.7 0.00 0.00 0.00 78 1005.2
20260509171036 14 131 3.2 14.5 0.00 0.00 0.00 77 1005.3
20260509170515 15 143 4.8 14.5 0.00 0.00 0.00 75 1005.4
20260509170015 15 138 6.4 9.7 0.00 0.00 0.00 75 1005.4
20260509165515 15 5 3.2 9.7 0.00 0.00 0.00 77 1005.5
20260509165015 15 124 3.2 9.7 0.00 0.00 0.00 77 1005.5
20260509164515 14 82 3.2 8.0 0.00 0.00 0.00 77 1005.4
20260509164017 14 100 3.2 9.7 0.00 0.00 0.00 77 1005.5
20260509163515 14 95 3.2 11.3 0.00 0.00 0.00 77 1005.5
20260509163015 14 117 3.2 11.3 0.00 0.00 0.00 76 1005.4
20260509162515 14 94 1.6 8.0 0.00 0.00 0.00 77 1005.4
20260509162015 14 116 3.2 6.4 0.00 0.00 0.00 77 1005.4
20260509161515 14 88 3.2 8.0 0.00 0.00 0.00 76 1005.5
20260509161015 14 82 3.2 8.0 0.00 0.00 0.00 76 1005.7
20260509160515 14 107 3.2 8.0 0.00 0.00 0.00 75 1005.7
20260509160015 14 75 1.6 6.4 0.00 0.00 0.00 74 1005.7
20260509155515 15 95 3.2 8.0 0.00 0.00 0.00 75 1005.8
20260509155015 15 112 3.2 8.0 0.00 0.00 0.00 75 1005.9
20260509154515 15 97 3.2 11.3 0.00 0.00 0.00 76 1006.0
20260509154015 14 131 3.2 11.3 0.00 0.00 0.00 77 1006.1
20260509153515 13 98 3.2 6.4 0.00 0.00 0.00 77 1006.2
20260509153015 13 64 3.2 6.4 0.00 0.00 0.00 78 1006.4
20260509152515 13 77 3.2 6.4 0.00 0.00 0.00 77 1006.4
20260509152015 13 87 1.6 6.4 0.00 0.00 0.00 77 1006.4
20260509151515 13 41 1.6 6.4 0.00 0.00 0.00 78 1006.5
20260509151035 13 71 1.6 4.8 0.00 0.00 0.00 78 1006.5
20260509150515 12 89 1.6 6.4 0.00 0.00 0.00 80 1006.5
20260509150015 12 80 1.6 6.4 0.00 0.00 0.00 80 1006.5
20260509145515 12 93 1.6 6.4 0.00 0.00 0.00 81 1006.4
20260509145015 11 126 3.2 6.4 0.00 0.00 0.00 82 1006.3
20260509144535 11 45 1.6 6.4 0.00 0.00 0.00 83 1006.4
20260509144015 10 59 1.6 4.8 0.00 0.00 0.00 83 1006.5
20260509143515 10 65 1.6 4.8 0.00 0.00 0.00 84 1006.5
20260509143015 10 8 1.6 6.4 0.00 0.00 0.00 84 1006.6
20260509142535 10 86 1.6 6.4 0.00 0.00 0.00 83 1006.7
20260509142015 10 72 1.6 6.4 0.00 0.00 0.00 83 1006.7
20260509141515 10 87 1.6 4.8 0.00 0.00 0.00 83 1006.8
20260509141015 10 59 1.6 4.8 0.00 0.00 0.00 84 1006.9
20260509140515 9 71 1.6 4.8 0.00 0.00 0.00 84 1006.9
20260509140015 9 77 1.6 4.8 0.00 0.00 0.00 83 1006.9
20260509135515 9 108 1.6 6.4 0.00 0.00 0.00 83 1007.0
20260509135015 9 145 1.6 6.4 0.00 0.00 0.00 83 1007.1
20260509134555 9 132 1.6 4.8 0.00 0.00 0.00 83 1007.1
20260509134015 9 92 1.6 4.8 0.00 0.00 0.00 83 1007.2
20260509133516 9 65 1.6 4.8 0.00 0.00 0.00 83 1007.1
20260509133015 9 102 1.6 6.4 0.00 0.00 0.00 83 1007.1
20260509132535 9 68 1.6 6.4 0.00 0.00 0.00 83 1007.1
20260509132015 9 75 1.6 6.4 0.00 0.00 0.00 83 1007.1
20260509131515 9 98 1.6 6.4 0.00 0.00 0.00 84 1007.2
20260509131015 9 101 0.0 3.2 0.00 0.00 0.00 84 1007.3
20260509130515 8 0.0 3.2 0.00 0.00 0.00 84 1007.3
20260509130056 8 85 0.0 3.2 0.00 0.00 0.00 84 1007.2
20260509125514 8 74 0.0 3.2 0.00 0.00 0.00 84 1007.2
20260509125014 8 0.0 0.0 0.00 0.00 0.00 85 1007.2
20260509124555 8 0.0 3.2 0.00 0.00 0.00 85 1007.2
20260509124015 8 104 0.0 3.2 0.00 0.00 0.00 85 1007.3
20260509123515 8 107 0.0 4.8 0.00 0.00 0.00 85 1007.3
20260509123015 7 26 1.6 4.8 0.00 0.00 0.00 85 1007.4
20260509122515 7 24 1.6 4.8 0.00 0.00 0.00 85 1007.4
20260509122014 7 16 0.0 4.8 0.00 0.00 0.00 85 1007.4
20260509121515 7 97 0.0 3.2 0.00 0.00 0.00 84 1007.4
20260509121014 7 94 0.0 3.2 0.00 0.00 0.00 84 1007.4
20260509120515 7 83 0.0 6.4 0.00 0.00 0.00 84 1007.4
20260509120034 6 92 1.6 6.4 0.00 0.00 0.00 84 1007.4
20260509115514 6 101 0.0 4.8 0.00 0.03 0.00 85 1007.3
20260509115016 6 115 0.0 8.0 0.00 0.03 0.00 85 1007.3
20260509114516 6 79 0.0 8.0 0.00 0.03 0.00 86 1007.3
20260509114016 6 85 1.6 9.7 0.00 0.05 0.00 87 1007.3
20260509113516 6 79 1.6 9.7 0.00 0.08 0.00 88 1007.3
20260509113016 6 81 3.2 8.0 0.00 0.13 0.00 89 1007.2
20260509112516 6 70 1.6 6.4 0.00 0.13 0.00 90 1007.3
20260509112056 5 80 1.6 6.4 0.00 0.13 0.00 91 1007.3
20260509111516 5 78 1.6 3.2 0.00 0.13 0.00 91 1007.3
20260509111016 5 82 0.0 4.8 0.00 0.13 0.00 92 1007.3
20260509110516 5 73 1.6 4.8 0.00 0.13 0.00 92 1007.3
20260509110037 5 90 0.0 1.6 0.00 0.13 0.00 91 1007.4
20260509105516 5 0.0 0.0 0.00 0.13 0.00 91 1007.3
20260509105016 5 0.0 0.0 0.00 0.13 0.00 91 1007.3
20260509104556 5 0.0 0.0 0.00 0.13 0.00 91 1007.3
20260509104036 5 0.0 0.0 0.00 0.13 0.00 91 1007.4
20260509103516 5 0.0 0.0 0.00 0.13 0.00 91 1007.3
20260509103018 5 0.0 0.0 0.00 0.13 0.00 91 1007.3
20260509102516 5 0.0 0.0 0.00 0.13 0.00 91 1007.4
20260509102016 5 0.0 0.0 0.00 0.13 0.00 91 1007.3
20260509101516 5 0.0 0.0 0.00 0.13 0.00 91 1007.4
20260509101016 5 0.0 0.0 0.00 0.13 0.00 91 1007.4
20260509100516 5 0.0 0.0 0.00 0.13 0.00 91 1007.4
20260509100016 5 0.0 0.0 0.00 0.13 0.00 91 1007.5
20260509095516 5 0.0 0.0 0.00 0.13 0.00 91 1007.4
20260509095036 5 0.0 0.0 0.00 0.13 0.00 92 1007.5
20260509094536 5 0.0 0.0 0.00 0.13 0.00 92 1007.5
20260509094016 5 0.0 3.2 0.00 0.13 0.00 92 1007.6
20260509093516 5 320 0.0 3.2 0.00 0.13 0.00 92 1007.6
20260509093016 5 97 1.6 3.2 0.00 0.13 0.00 92 1007.5
20260509092516 5 101 0.0 1.6 0.00 0.13 0.00 92 1007.5
20260509092036 5 0.0 0.0 0.00 0.13 0.00 92 1007.6
20260509091516 5 0.0 0.0 0.00 0.13 0.00 92 1007.7
20260509091016 5 0.0 0.0 0.00 0.13 0.00 92 1007.6
20260509090516 5 0.0 0.0 0.00 0.13 0.00 92 1007.6
20260509090016 5 0.0 0.0 0.00 0.13 0.00 92 1007.6
20260509085516 5 0.0 0.0 0.00 0.13 0.00 92 1007.6
20260509085016 5 0.0 0.0 0.00 0.13 0.00 92 1007.7
20260509084516 5 0.0 0.0 0.00 0.13 0.00 92 1007.7
20260509084058 5 0.0 0.0 0.00 0.13 0.00 92 1007.8
20260509083516 5 0.0 0.0 0.00 0.13 0.00 92 1007.8
20260509083016 4 0.0 0.0 0.00 0.13 0.00 91 1007.7
20260509082536 4 0.0 0.0 0.00 0.13 0.00 92 1007.8
20260509082016 4 0.0 0.0 0.00 0.13 0.00 92 1007.9
20260509081516 4 0.0 0.0 0.00 0.13 0.00 91 1007.9
20260509081016 4 0.0 0.0 0.00 0.13 0.00 92 1007.9
20260509080536 4 0.0 0.0 0.00 0.13 0.00 91 1007.9
20260509080016 4 0.0 0.0 0.00 0.13 0.00 91 1007.9
20260509075536 4 0.0 0.0 0.00 0.13 0.00 91 1007.9
20260509075036 4 0.0 0.0 0.00 0.13 0.00 91 1007.9
20260509074516 4 0.0 0.0 0.00 0.13 0.00 91 1007.9
20260509074016 4 0.0 0.0 0.00 0.13 0.00 91 1008.0
20260509073516 3 0.0 0.0 0.00 0.13 0.00 91 1007.9
20260509073016 3 0.0 0.0 0.00 0.13 0.00 90 1007.9
20260509072517 3 0.0 0.0 0.00 0.13 0.00 90 1008.0
20260509072016 3 0.0 0.0 0.00 0.13 0.00 90 1008.0